GW6852 Weather Reports


time (UTC)temp
C
wind
direction
speed
KPH
gust
KPH
rain 1hr
cm
rain 24hr
cm
rain mn
cm
humidity
%
barometer
mb
20260504214956 26 67 4.8 6.4 0.00 0.00 0.00 38 1010.9
20260504214452 25 286 1.6 6.4 0.00 0.00 0.00 39 1011.1
20260504213949 26 112 0.0 4.8 0.00 0.00 0.00 40 1010.9
20260504213445 25 88 0.0 3.2 0.00 0.00 0.00 42 1010.9
20260504212943 25 102 1.6 6.4 0.00 0.00 0.00 41 1010.8
20260504212438 25 100 1.6 6.4 0.00 0.00 0.00 40 1011.1
20260504211936 25 96 1.6 4.8 0.00 0.00 0.00 40 1011.1
20260504211432 25 95 0.0 4.8 0.00 0.00 0.00 42 1011.1
20260504210930 25 80 1.6 6.4 0.00 0.00 0.00 40 1011.2
20260504210426 25 61 3.2 4.8 0.00 0.00 0.00 39 1011.0
20260504205924 25 246 1.6 3.2 0.00 0.00 0.00 39 1011.3
20260504205421 24 95 4.8 6.4 0.00 0.00 0.00 42 1011.2
20260504204919 23 85 3.2 6.4 0.00 0.00 0.00 42 1011.3
20260504204417 23 244 4.8 6.4 0.00 0.00 0.00 42 1011.2
20260504203916 25 256 3.2 6.4 0.00 0.00 0.00 40 1011.2
20260504203413 25 262 0.0 3.2 0.00 0.00 0.00 39 1011.2
20260504202909 25 234 1.6 3.2 0.00 0.00 0.00 41 1011.2
20260504202406 24 80 3.2 4.8 0.00 0.00 0.00 43 1011.4
20260504201903 24 104 3.2 3.2 0.00 0.00 0.00 43 1011.3
20260504201400 23 54 3.2 8.0 0.00 0.00 0.00 42 1011.5
20260504200857 23 234 1.6 4.8 0.00 0.00 0.00 42 1011.6
20260504200354 23 214 0.0 4.8 0.00 0.00 0.00 44 1011.6
20260504195851 23 238 3.2 6.4 0.00 0.00 0.00 43 1011.4
20260504195346 22 54 3.2 6.4 0.00 0.00 0.00 46 1011.5
20260504194843 22 274 3.2 6.4 0.00 0.00 0.00 47 1011.4
20260504194339 23 68 6.4 6.4 0.00 0.00 0.00 44 1011.3
20260504193835 23 255 1.6 6.4 0.00 0.00 0.00 47 1011.5
20260504193332 22 261 1.6 4.8 0.00 0.00 0.00 48 1011.5
20260504192831 22 234 3.2 6.4 0.00 0.00 0.00 49 1011.5
20260504192329 21 67 3.2 4.8 0.00 0.00 0.00 49 1011.6
20260504191827 21 102 4.8 4.8 0.00 0.00 0.00 48 1011.3
20260504191324 21 53 4.8 6.4 0.00 0.00 0.00 49 1011.6
20260504190819 21 112 4.8 8.0 0.00 0.00 0.00 51 1011.6
20260504190316 22 113 3.2 8.0 0.00 0.00 0.00 52 1011.5
20260504185813 22 119 0.0 3.2 0.00 0.00 0.00 48 1011.6
20260504185310 21 106 4.8 6.4 0.00 0.00 0.00 52 1011.5
20260504184806 21 59 3.2 6.4 0.00 0.00 0.00 54 1011.6
20260504184301 21 76 0.0 4.8 0.00 0.00 0.00 54 1011.6
20260504183757 21 245 3.2 3.2 0.00 0.00 0.00 52 1011.7
20260504183254 20 79 1.6 6.4 0.00 0.00 0.00 53 1011.5
20260504182753 20 62 1.6 6.4 0.00 0.00 0.00 57 1011.5
20260504182249 20 54 3.2 4.8 0.00 0.00 0.00 55 1011.6
20260504181747 20 67 3.2 4.8 0.00 0.00 0.00 57 1011.8
20260504181244 20 68 4.8 6.4 0.00 0.00 0.00 58 1011.6
20260504180743 20 85 3.2 6.4 0.00 0.00 0.00 55 1011.5
20260504180241 20 62 0.0 4.8 0.00 0.00 0.00 57 1011.5
20260504175739 19 44 0.0 3.2 0.00 0.00 0.00 56 1011.6
20260504175235 19 188 1.6 3.2 0.00 0.00 0.00 57 1011.5
20260504174733 18 64 3.2 4.8 0.00 0.00 0.00 60 1011.4
20260504174231 18 95 3.2 4.8 0.00 0.00 0.00 62 1011.7
20260504173727 18 102 3.2 6.4 0.00 0.00 0.00 62 1011.7
20260504173224 18 114 4.8 6.4 0.00 0.00 0.00 61 1011.7
20260504172721 18 79 3.2 3.2 0.00 0.00 0.00 64 1011.8
20260504172217 18 133 4.8 4.8 0.00 0.00 0.00 63 1011.5
20260504171714 18 103 0.0 4.8 0.00 0.00 0.00 65 1011.6
20260504171211 17 184 1.6 3.2 0.00 0.00 0.00 64 1011.6
20260504170708 17 121 4.8 6.4 0.00 0.00 0.00 69 1011.6
20260504170205 17 67 0.0 3.2 0.00 0.00 0.00 69 1011.4
20260504160124 14 87 1.6 6.4 0.00 0.00 0.00 79 1011.6
20260504151051 12 160 0.0 3.2 0.00 0.00 0.00 81 1011.4
20260504150548 11 68 3.2 3.2 0.00 0.00 0.00 83 1011.4
20260504141014 11 33 3.2 4.8 0.00 0.00 0.00 82 1011.0
20260504140511 11 41 3.2 3.2 0.00 0.00 0.00 81 1011.1
20260504130435 11 40 3.2 3.2 0.00 0.00 0.00 81 1010.4
20260504110322 12 61 1.6 3.2 0.00 0.00 0.00 78 1010.4
20260504100240 12 35 1.6 3.2 0.00 0.00 0.00 75 1010.2
20260504081633 13 37 1.6 4.8 0.00 0.00 0.00 70 1010.3
20260504081129 13 49 1.6 3.2 0.00 0.00 0.00 70 1010.4
20260504080626 13 89 0.0 3.2 0.00 0.00 0.00 69 1010.4
20260504080122 14 35 0.0 3.2 0.00 0.00 0.00 68 1010.4
20260504050439 15 111 0.0 3.2 0.00 0.00 0.00 71 1010.6
20260504045936 15 13 0.0 3.2 0.00 0.00 0.00 71 1010.5
20260504045431 15 35 1.6 3.2 0.00 0.00 0.00 72 1010.6
20260504044928 15 53 1.6 3.2 0.00 0.00 0.00 72 1010.6
20260504044425 15 169 0.0 3.2 0.00 0.00 0.00 73 1010.5
20260504043922 15 32 3.2 3.2 0.00 0.00 0.00 74 1010.5
20260504043419 15 37 0.0 3.2 0.00 0.00 0.00 73 1010.4
20260504042917 15 23 1.6 3.2 0.00 0.00 0.00 73 1010.5
20260504042413 15 51 0.0 3.2 0.00 0.00 0.00 72 1010.5
20260504041910 15 56 3.2 3.2 0.00 0.00 0.00 74 1010.5
20260504041406 15 50 0.0 3.2 0.00 0.00 0.00 75 1010.5
20260504040902 15 27 0.0 3.2 0.00 0.00 0.00 75 1010.4
20260504040400 15 41 0.0 1.6 0.00 0.00 0.00 76 1010.4
20260504035855 15 29 1.6 3.2 0.00 0.00 0.00 76 1010.6
20260504035353 15 44 0.0 3.2 0.00 0.00 0.00 76 1010.4
20260504034850 15 83 0.0 3.2 0.00 0.00 0.00 77 1010.5
20260504034347 15 17 1.6 3.2 0.00 0.00 0.00 76 1010.5
20260504033844 16 49 0.0 1.6 0.00 0.00 0.00 75 1010.5
20260504033342 16 45 1.6 3.2 0.00 0.00 0.00 74 1010.5
20260504032839 16 26 0.0 1.6 0.00 0.00 0.00 73 1010.2
20260504032336 16 80 3.2 3.2 0.00 0.00 0.00 74 1010.4
20260504031833 16 53 0.0 3.2 0.00 0.00 0.00 73 1010.4
20260504031330 16 10 1.6 3.2 0.00 0.00 0.00 72 1010.5
20260504030826 16 11 0.0 1.6 0.00 0.00 0.00 69 1010.3
20260504030324 17 43 0.0 3.2 0.00 0.00 0.00 69 1010.3
20260504025819 17 59 1.6 3.2 0.00 0.00 0.00 66 1010.5
20260504025317 17 67 1.6 3.2 0.00 0.00 0.00 64 1010.6
20260504024813 17 89 0.0 0.0 0.00 0.00 0.00 64 1010.2
20260504024310 18 41 1.6 3.2 0.00 0.00 0.00 61 1010.3
20260504023806 18 49 0.0 3.2 0.00 0.00 0.00 59 1010.3
20260504023303 18 62 1.6 3.2 0.00 0.00 0.00 60 1010.6
20260504022759 18 68 3.2 3.2 0.00 0.00 0.00 59 1010.6
20260504022255 19 55 0.0 3.2 0.00 0.00 0.00 57 1010.5
20260504021752 19 101 3.2 3.2 0.00 0.00 0.00 56 1010.6
20260504021250 20 89 0.0 3.2 0.00 0.00 0.00 53 1010.7
20260504020747 20 28 1.6 3.2 0.00 0.00 0.00 53 1010.8
20260504020243 20 74 4.8 6.4 0.00 0.00 0.00 52 1010.9
20260504015739 20 115 3.2 3.2 0.00 0.00 0.00 55 1011.1
20260504015236 20 54 1.6 1.6 0.00 0.00 0.00 52 1010.7
20260504014732 20 87 1.6 3.2 0.00 0.00 0.00 54 1010.9
20260504014228 21 98 3.2 3.2 0.00 0.00 0.00 53 1010.8
20260504013726 21 43 3.2 3.2 0.00 0.00 0.00 50 1010.8
20260504013224 21 71 1.6 3.2 0.00 0.00 0.00 50 1011.0
20260504012720 21 104 0.0 3.2 0.00 0.00 0.00 52 1011.3
20260504012218 22 86 1.6 3.2 0.00 0.00 0.00 46 1011.3
20260504011715 23 78 0.0 3.2 0.00 0.00 0.00 49 1011.2
20260504011211 23 132 1.6 4.8 0.00 0.00 0.00 51 1011.2
20260504010707 22 83 1.6 3.2 0.00 0.00 0.00 49 1011.3
20260504010203 22 71 1.6 4.8 0.00 0.00 0.00 50 1011.4
20260504005700 21 71 3.2 6.4 0.00 0.00 0.00 53 1011.6
20260504005157 22 71 1.6 4.8 0.00 0.00 0.00 53 1011.5
20260504004655 21 99 1.6 4.8 0.00 0.00 0.00 55 1011.5
20260504004151 22 77 6.4 8.0 0.00 0.00 0.00 50 1011.5
20260504003648 22 95 0.0 6.4 0.00 0.00 0.00 52 1011.6
20260504003145 23 112 3.2 4.8 0.00 0.00 0.00 50 1011.6
20260504002641 22 205 0.0 3.2 0.00 0.00 0.00 50 1011.8
20260504002139 23 153 3.2 6.4 0.00 0.00 0.00 48 1011.7
20260504001637 25 116 1.6 3.2 0.00 0.00 0.00 49 1011.7
20260504001132 22 89 0.0 3.2 0.00 0.00 0.00 51 1011.9
20260504000630 22 106 3.2 4.8 0.00 0.00 0.00 53 1011.8
20260504000127 23 100 3.2 8.0 0.00 0.00 0.00 50 1012.0
20260503235625 23 70 3.2 6.4 0.00 0.00 0.00 52 1012.0
20260503235122 23 116 4.8 6.4 0.00 0.00 0.00 49 1012.0
20260503234620 22 97 3.2 4.8 0.00 0.00 0.00 50 1012.0
20260503234118 23 79 6.4 8.0 0.00 0.00 0.00 49 1012.1
20260503233614 22 122 4.8 6.4 0.00 0.00 0.00 51 1012.2
20260503233110 22 102 4.8 6.4 0.00 0.00 0.00 49 1012.2
20260503232607 22 109 3.2 4.8 0.00 0.00 0.00 51 1012.2
20260503232104 22 91 4.8 6.4 0.00 0.00 0.00 52 1012.4
20260503231602 22 62 6.4 6.4 0.00 0.00 0.00 52 1012.5
20260503231059 21 81 3.2 4.8 0.00 0.00 0.00 53 1012.7
20260503230555 22 54 1.6 12.9 0.00 0.00 0.00 54 1012.7
20260503230053 22 85 3.2 8.0 0.00 0.00 0.00 52 1012.7
20260503225549 22 79 6.4 8.0 0.00 0.00 0.00 52 1012.8
20260503225044 23 95 3.2 9.7 0.00 0.00 0.00 50 1012.9
20260503224542 22 128 0.0 6.4 0.00 0.00 0.00 51 1012.8
20260503224040 22 63 3.2 6.4 0.00 0.00 0.00 51 1012.8
20260503223538 22 72 6.4 6.4 0.00 0.00 0.00 51 1012.9
20260503223033 22 102 4.8 4.8 0.00 0.00 0.00 52 1012.9
20260503222532 22 58 3.2 6.4 0.00 0.00 0.00 53 1013.1
20260503222029 21 84 3.2 6.4 0.00 0.00 0.00 55 1013.1
20260503221527 21 65 4.8 6.4 0.00 0.00 0.00 55 1013.3
20260503221025 21 92 4.8 9.7 0.00 0.00 0.00 57 1013.3
20260503220520 21 76 6.4 9.7 0.00 0.00 0.00 57 1013.3
20260503220017 21 68 4.8 8.0 0.00 0.00 0.00 55 1013.5
20260503215514 21 66 4.8 6.4 0.00 0.00 0.00 55 1013.4